Weather in Jekabpils

Latvia     56°29′52″N   25°52′00″E
temp.,
°C
wind,
m/s
gust,
m/s
humid.,
%
clouds,
%
prec.,
mm/h
press.,
hPa
HPBL,
m
27 october, wed
wed2700:00+7sw41188100 0.9 1013517
03:00+7wsw41295100 1.9 1012641
06:00+8w51084100 0.1 1013800
09:00+7w51086100 0.1 1014704
12:00+9wsw4118449 0.0 1015789
15:00+10sw51082100 0.0 10141040
18:00+9ssw51491100 0.9 1012901
21:00+10sw71793100 7.1 10091172
28 october, thu
thu2800:00+11w61593100 2.6 10091106
03:00+11w51294100 2.8 10111077
06:00+11w41193100 0.3 1013729
09:00+10w279724 0.4 1016255
12:00+12w3588100 0.1 1018529
15:00+12w2485100 0.1 1019256
18:00+11ssw2592100 0.0 1020165
21:00+11sw3898100 0.1 1021393
29 october, fri
fri2900:00+10sw31096100 0.0 1021370
03:00+9sw3119660 0.0 1022336
06:00+8sw39968 0.0 1022262
09:00+8ssw399711 0.0 1022233
12:00+11ssw49838 0.0 1022386
15:00+13ssw310799 0.0 1022585
18:00+10s3109188 0.0 1022318
21:00+11s4149162 0.0 1022492
30 october, sat
sat3000:00+10s4149398 0.0 1022507
03:00+10s31294100 0.0 1022426
06:00+9s3119479 0.0 1021355
09:00+8s3129292 0.0 1021394
12:00+11s4117764 0.0 1021530
15:00+13s4117261 0.0 1020681
18:00+10s4128226 0.0 1020455
21:00+9s4138582 0.0 1021453
31 october, sun
sun3100:00+8s3119097 0.0 1021356
03:00+7s28955 0.0 1022202
05:00+6s279539 0.0 1021142
08:00+6sse2895100 0.0 1021183
11:00+10sse3107458 0.0 1019416
14:00+12sse4966100 0.0 1018581
17:00+9sse4137575 0.0 1016473
20:00+9s5156777 0.0 1015617